Location: Capelle
(50.3413°N, 1.9974°E)
Time: 23:15:06
(UTC+00:00)

SL-16 R/B - Pass Details

Date: 12 January 2026
Orbit: 842 x 844 km, 71.0° (Epoch: 7 February)

Event Time Altitude Azimuth Distance (km) Brightness Sun altitude
Rises 18:49:24 0° 327° (NNW) 3,414 5.7 -24.1°
Reaches altitude 10° 18:54:01 10° 1° (N) 2,477 4.6 -24.8°
Enters shadow 18:54:46 11° 9° (N) 2,415 4.4 -25.0°
